Location: Banff
(51.1670°N, 115.5670°W)
Time: 15:23:28
(UTC-06:00)

Amateur Radio Satellites - All Passes

Search period start: 17 April 2014 14:53
Search period end: 18 April 2014 14:53
Location: Banff, 51.1670°N, 115.5670°W

Satellite Date Start Highest point End Downlink Frequencies (MHz)
Time Altitude Azimuth
Oscar 19 17 Apr 14:59:35 15:04:30 44° 262° (W) 15:09:28 437.125 CW, 437.150 USB
KITSAT 1 17 Apr 15:03:30 15:09:16 22° 257° (WSW) 15:15:01 435.175 FM
AO-7 17 Apr 15:05:12 15:11:55 29° 45° (NE) 15:18:39 29.400 - 29.500 MHz
Saudisat 1A 17 Apr 15:06:03 15:09:53 27° 330° (NNW) 15:13:43 436.775 MHz
Oscar 16 17 Apr 15:07:46 15:12:29 36° 264° (W) 15:17:15 437.025 USB, Beacon 2401.1428
TMSAT-1 17 Apr 15:07:59 15:12:50 38° 64° (ENE) 15:17:41 436.925 FM
AO-Echo 17 Apr 15:18:25 15:23:38 65° 258° (WSW) 15:28:44 ?
Uosat F 17 Apr 15:35:58 15:40:13 28° 60° (ENE) 15:44:28 435.120 FM
Uribyol 2 17 Apr 15:39:05 15:43:47 35° 264° (W) 15:48:31 436.500 FM
Gurwin Techsat 1B 17 Apr 15:57:40 16:02:58 71° 257° (WSW) 16:08:18 435.225 FM
OPAL 17 Apr 16:13:41 16:18:39 42° 101° (E) 16:23:35 ?
AO-27 17 Apr 16:19:49 16:23:20 18° 271° (W) 16:26:53 436.795 MHz FM
RS-15 17 Apr 16:24:53 16:35:54 82° 46° (NE) 16:47:05 29.354 - 29.394 USB, Beacon 29.352 USB
JAS-1B 17 Apr 16:26:18 16:34:18 82° 72° (ENE) 16:40:58 435.800 - 435.900 CW/SSB
ITAMSAT 1 17 Apr 16:31:52 16:34:47 15° 273° (W) 16:37:42 435.822 SSB
TMSAT-1 17 Apr 16:47:49 16:52:46 39° 263° (W) 16:57:44 436.925 FM
Saudisat 1A 17 Apr 16:48:18 16:50:54 15° 354° (N) 16:53:30 436.775 MHz
AO-7 17 Apr 16:55:30 17:03:48 87° 68° (ENE) 17:12:08 29.400 - 29.500 MHz
ISS 17 Apr 16:58:38 17:00:27 14° 139° (SE) 17:02:17 145.800 FM
AO-Echo 17 Apr 17:02:22 17:03:22 11° 277° (W) 17:04:22 ?
Uosat F 17 Apr 17:13:54 17:18:47 51° 260° (W) 17:23:42 435.120 FM
SO-50 17 Apr 17:16:07 17:20:19 41° 122° (ESE) 17:24:35 436.795 FM
Gurwin Techsat 1B 17 Apr 17:41:58 17:43:56 12° 276° (W) 17:45:53 435.225 FM
OPAL 17 Apr 17:52:45 17:57:28 36° 300° (WNW) 18:02:11 ?
Hamsat 17 Apr 18:08:01 18:11:41 30° 65° (ENE) 18:15:24 145.90 MHz
UOSAT-12 17 Apr 18:13:39 18:15:20 12° 108° (ESE) 18:17:01 437.025 FM, 437.400 FM
JAS-1B 17 Apr 18:19:22 18:25:30 24° 269° (W) 18:30:56 435.800 - 435.900 CW/SSB
Saudisat 1A 17 Apr 18:28:57 18:32:08 19° 19° (NNE) 18:35:18 436.775 MHz
ISS 17 Apr 18:33:22 18:36:39 53° 157° (SSE) 18:39:57 145.800 FM
JAS-2 17 Apr 18:36:14 18:40:56 28° 60° (ENE) 18:45:21 435.800 - 435.900 CW/SSB, 435.910 FM
RS-15 17 Apr 18:37:47 18:47:17 37° 252° (WSW) 18:57:00 29.354 - 29.394 USB, Beacon 29.352 USB
AO-7 17 Apr 18:51:04 18:57:38 26° 270° (W) 19:04:15 29.400 - 29.500 MHz
SO-50 17 Apr 18:56:41 19:00:57 40° 323° (NW) 19:05:16 436.795 FM
SO-67 17 Apr 19:19:06 19:22:08 28° 67° (ENE) 19:25:11 435.3500 MHz FM
Hamsat 17 Apr 19:43:46 19:47:37 34° 264° (W) 19:51:32 145.90 MHz
HO-68 17 Apr 19:47:13 19:52:25 22° 46° (NE) 19:57:37 435.675 MHz FM
UOSAT-12 17 Apr 19:50:04 19:54:38 70° 128° (SE) 19:59:18 437.025 FM, 437.400 FM
Saudisat 1A 17 Apr 20:08:20 20:12:42 53° 42° (NE) 20:17:00 436.775 MHz
ISS 17 Apr 20:09:59 20:13:22 81° 357° (N) 20:16:45 145.800 FM
JAS-2 17 Apr 20:20:10 20:25:51 56° 259° (W) 20:31:06 435.800 - 435.900 CW/SSB, 435.910 FM
STRAND 1 17 Apr 20:27:08 20:32:13 63° 102° (ESE) 20:37:16 ?
SO-50 17 Apr 20:39:39 20:42:41 17° 347° (NNW) 20:45:46 436.795 FM
SO-67 17 Apr 20:52:22 20:55:18 25° 266° (W) 20:58:16 435.3500 MHz FM
Oscar 11 17 Apr 21:13:53 21:16:55 19° 59° (ENE) 21:19:57 145.825 FM, Beacon 2401.500 USB
UOSAT-12 17 Apr 21:31:06 21:35:12 30° 330° (NNW) 21:39:23 437.025 FM, 437.400 FM
HO-68 17 Apr 21:32:00 21:39:07 77° 68° (ENE) 21:46:17 435.675 MHz FM
ISS 17 Apr 21:46:47 21:50:09 71° 197° (SSW) 21:53:30 145.800 FM
Saudisat 1A 17 Apr 21:48:18 21:52:06 28° 242° (WSW) 21:55:51 436.775 MHz
STRAND 1 17 Apr 22:07:00 22:11:03 24° 302° (WNW) 22:15:05 ?
SO-50 17 Apr 22:21:58 22:24:57 17° 12° (NNE) 22:27:58 436.795 FM
FUNcube-1 17 Apr 22:33:33 22:37:22 34° 67° (ENE) 22:41:09 145.950 - 145.970 MHz USB
Oscar 11 17 Apr 22:48:26 22:52:42 63° 258° (WSW) 22:57:01 145.825 FM, Beacon 2401.500 USB
UOSAT-12 17 Apr 23:13:47 23:16:47 16° 354° (N) 23:19:48 437.025 FM, 437.400 FM
MaSat-1 17 Apr 23:20:55 23:23:40 54° 120° (ESE) 23:26:10 437.345 MHz
HO-68 17 Apr 23:21:44 23:27:33 26° 269° (W) 23:33:25 435.675 MHz FM
ISS 17 Apr 23:23:55 23:26:32 21° 216° (SW) 23:29:08 145.800 FM
SO-50 18 Apr 00:02:29 00:06:46 36° 35° (NE) 00:11:06 436.795 FM
FUNcube-1 18 Apr 00:10:11 00:13:51 29° 265° (W) 00:17:31 145.950 - 145.970 MHz USB
UOSAT-12 18 Apr 00:55:07 00:58:37 20° 18° (NNE) 01:02:07 437.025 FM, 437.400 FM
MaSat-1 18 Apr 01:01:44 01:02:22 11° 318° (NW) 01:03:00 437.345 MHz
Sapphire 18 Apr 01:07:38 01:11:01 17° 106° (ESE) 01:14:25 437.095 MHz 1200 baud AX-25 AFSK
SO-50 18 Apr 01:43:02 01:47:32 51° 236° (SW) 01:52:04 436.795 FM
PCSat 18 Apr 01:50:42 01:55:37 37° 115° (ESE) 02:00:35 145.825 MHz
OPAL 18 Apr 01:56:25 02:00:27 25° 55° (NE) 02:04:32 ?
UOSAT-12 18 Apr 02:35:08 02:39:47 52° 41° (NE) 02:44:24 437.025 FM, 437.400 FM
AO-27 18 Apr 02:46:44 02:50:21 19° 89° (E) 02:53:57 436.795 MHz FM
Sapphire 18 Apr 02:48:16 02:53:41 86° 125° (SE) 02:59:09 437.095 MHz 1200 baud AX-25 AFSK
ITAMSAT 1 18 Apr 02:57:36 03:01:38 23° 91° (E) 03:05:39 435.822 SSB
Oscar 19 18 Apr 03:05:36 03:10:37 45° 98° (E) 03:15:35 437.125 CW, 437.150 USB
Oscar 16 18 Apr 03:13:32 03:18:40 55° 101° (E) 03:23:46 437.025 USB, Beacon 2401.1428
AO-Echo 18 Apr 03:21:02 03:25:10 27° 93° (E) 03:29:12 ?
PCSat 18 Apr 03:33:42 03:38:58 50° 316° (NW) 03:44:15 145.825 MHz
OPAL 18 Apr 03:33:57 03:38:57 64° 255° (WSW) 03:44:04 ?
KITSAT 1 18 Apr 03:41:09 03:48:17 36° 110° (ESE) 03:55:25 435.175 FM
Uribyol 2 18 Apr 03:45:50 03:50:57 57° 101° (E) 03:56:03 436.500 FM
JAS-1B 18 Apr 04:07:53 04:10:04 12° 83° (E) 04:12:14 435.800 - 435.900 CW/SSB
Gurwin Techsat 1B 18 Apr 04:08:50 04:13:35 32° 94° (E) 04:18:18 435.225 FM
UOSAT-12 18 Apr 04:15:36 04:19:48 32° 241° (WSW) 04:23:58 437.025 FM, 437.400 FM
AO-27 18 Apr 04:25:16 04:30:28 75° 288° (WNW) 04:35:37 436.795 MHz FM
Sapphire 18 Apr 04:33:10 04:37:47 28° 328° (NNW) 04:42:26 437.095 MHz 1200 baud AX-25 AFSK
ITAMSAT 1 18 Apr 04:36:27 04:41:35 63° 290° (WNW) 04:46:40 435.822 SSB
Oscar 19 18 Apr 04:45:14 04:49:50 33° 298° (WNW) 04:54:26 437.125 CW, 437.150 USB
AO-7 18 Apr 04:52:09 04:58:07 21° 87° (E) 05:04:04 29.400 - 29.500 MHz
Oscar 16 18 Apr 04:53:25 04:57:45 28° 300° (WNW) 05:02:05 437.025 USB, Beacon 2401.1428
TMSAT-1 18 Apr 04:57:49 05:03:04 58° 101° (E) 05:08:16 436.925 FM
AO-Echo 18 Apr 04:59:33 05:04:11 45° 293° (WNW) 05:08:41 ?
Uosat F 18 Apr 05:16:24 05:20:56 33° 96° (E) 05:25:26 435.120 FM
PCSat 18 Apr 05:19:50 05:23:40 19° 340° (NNW) 05:27:32 145.825 MHz
Uribyol 2 18 Apr 05:25:52 05:30:09 27° 301° (WNW) 05:34:25 436.500 FM
KITSAT 1 18 Apr 05:35:02 05:43:10 74° 313° (NW) 05:51:20 435.175 FM
Gurwin Techsat 1B 18 Apr 05:48:40 05:53:44 46° 294° (WNW) 05:58:46 435.225 FM
JAS-1B 18 Apr 05:56:11 06:01:59 77° 105° (ESE) 06:07:44 435.800 - 435.900 CW/SSB
AO-27 18 Apr 06:06:14 06:09:10 15° 309° (NW) 06:12:06 436.795 MHz FM
STRAND 1 18 Apr 06:10:25 06:14:39 27° 60° (ENE) 06:18:53 ?
ITAMSAT 1 18 Apr 06:17:48 06:20:08 13° 311° (NW) 06:22:28 435.822 SSB
Sapphire 18 Apr 06:19:56 06:23:05 15° 354° (N) 06:26:13 437.095 MHz 1200 baud AX-25 AFSK
TMSAT-1 18 Apr 06:38:18 06:42:41 27° 301° (WNW) 06:47:04 436.925 FM
AO-7 18 Apr 06:43:51 06:52:13 81° 109° (ESE) 07:00:34 29.400 - 29.500 MHz
AO-40 18 Apr 06:46:51 09:18:39 23° 193° (SSW) 13:27:50 Beacon 2401.320
Uosat F 18 Apr 06:55:09 06:59:49 40° 295° (WNW) 07:04:28 435.120 FM
RS-15 18 Apr 06:57:04 07:05:46 27° 103° (ESE) 07:14:16 29.354 - 29.394 USB, Beacon 29.352 USB
PCSat 18 Apr 07:06:07 07:09:15 15° 6° (N) 07:12:23 145.825 MHz
Hamsat 18 Apr 07:24:12 07:28:03 30° 95° (E) 07:31:53 145.90 MHz
JAS-2 18 Apr 07:24:24 07:26:48 13° 86° (E) 07:29:15 435.800 - 435.900 CW/SSB, 435.910 FM
Gurwin Techsat 1B 18 Apr 07:31:56 07:32:29 10° 315° (NW) 07:33:02 435.225 FM
KITSAT 1 18 Apr 07:32:42 07:39:57 34° 339° (NNW) 07:47:13 435.175 FM
MaSat-1 18 Apr 07:39:16 07:41:59 65° 56° (NE) 07:45:07 437.345 MHz
JAS-1B 18 Apr 07:47:51 07:52:06 22° 307° (NW) 07:56:16 435.800 - 435.900 CW/SSB
STRAND 1 18 Apr 07:48:32 07:53:34 56° 259° (W) 07:58:36 ?
Sapphire 18 Apr 08:04:50 08:08:40 19° 20° (NNE) 08:12:29 437.095 MHz 1200 baud AX-25 AFSK
SO-67 18 Apr 08:11:57 08:14:22 17° 91° (E) 08:16:47 435.3500 MHz FM
AO-7 18 Apr 08:37:15 08:44:21 33° 311° (NW) 08:51:27 29.400 - 29.500 MHz
PCSat 18 Apr 08:49:55 08:54:33 27° 32° (NNE) 08:59:09 145.825 MHz
Hamsat 18 Apr 09:00:07 09:04:06 36° 293° (WNW) 09:08:04 145.90 MHz
RS-15 18 Apr 09:05:19 09:16:34 83° 128° (SE) 09:27:32 29.354 - 29.394 USB, Beacon 29.352 USB
JAS-2 18 Apr 09:07:29 09:12:46 79° 105° (ESE) 09:18:28 435.800 - 435.900 CW/SSB, 435.910 FM
KITSAT 1 18 Apr 09:31:00 09:37:55 29° 9° (N) 09:44:47 435.175 FM
SO-67 18 Apr 09:44:25 09:47:45 41° 290° (WNW) 09:51:03 435.3500 MHz FM
Sapphire 18 Apr 09:48:07 09:53:24 49° 44° (NE) 09:58:39 437.095 MHz 1200 baud AX-25 AFSK
AO-7 18 Apr 10:31:20 10:34:41 13° 337° (NNW) 10:38:02 29.400 - 29.500 MHz
Oscar 11 18 Apr 10:31:51 10:34:45 17° 89° (E) 10:37:39 145.825 FM, Beacon 2401.500 USB
PCSat 18 Apr 10:33:11 10:38:39 88° 234° (SW) 10:44:05 145.825 MHz
HO-68 18 Apr 10:41:35 10:48:33 50° 100° (E) 10:55:28 435.675 MHz FM
JAS-2 18 Apr 10:53:41 10:57:25 20° 304° (NW) 11:01:18 435.800 - 435.900 CW/SSB, 435.910 FM
RS-15 18 Apr 11:19:22 11:30:01 49° 336° (NNW) 11:40:33 29.354 - 29.394 USB, Beacon 29.352 USB
KITSAT 1 18 Apr 11:27:28 11:35:21 50° 36° (NE) 11:43:10 435.175 FM
Sapphire 18 Apr 11:31:47 11:36:46 38° 245° (WSW) 11:41:43 437.095 MHz 1200 baud AX-25 AFSK
FUNcube-1 18 Apr 11:53:32 11:57:26 35° 97° (E) 12:01:24 145.950 - 145.970 MHz USB
Saudisat 1A 18 Apr 11:59:54 12:03:20 22° 115° (ESE) 12:06:45 436.775 MHz
Oscar 11 18 Apr 12:07:04 12:11:23 63° 288° (WNW) 12:15:42 145.825 FM, Beacon 2401.500 USB
PCSat 18 Apr 12:17:51 12:21:20 18° 254° (WSW) 12:24:48 145.825 MHz
HO-68 18 Apr 12:29:31 12:36:14 45° 301° (WNW) 12:42:56 435.675 MHz FM
AO-27 18 Apr 12:35:34 12:36:11 10° 46° (NE) 12:36:49 436.795 MHz FM
ITAMSAT 1 18 Apr 12:45:10 12:47:03 12° 48° (NE) 12:48:56 435.822 SSB
Oscar 19 18 Apr 12:50:23 12:54:05 20° 56° (NE) 12:57:48 437.125 CW, 437.150 USB
Oscar 16 18 Apr 12:57:58 13:02:02 24° 58° (ENE) 13:06:07 437.025 USB, Beacon 2401.1428
AO-Echo 18 Apr 13:03:27 13:05:44 13° 51° (NE) 13:07:59 ?
KITSAT 1 18 Apr 13:23:06 13:31:03 61° 241° (WSW) 13:38:56 435.175 FM
FUNcube-1 18 Apr 13:30:10 13:33:49 29° 295° (WNW) 13:37:30 145.950 - 145.970 MHz USB
Uribyol 2 18 Apr 13:30:58 13:35:09 26° 59° (ENE) 13:39:20 436.500 FM
RS-15 18 Apr 13:35:02 13:45:18 42° 10° (N) 13:55:33 29.354 - 29.394 USB, Beacon 29.352 USB
Saudisat 1A 18 Apr 13:38:06 13:42:33 67° 315° (NW) 13:47:02 436.775 MHz
Oscar 11 18 Apr 13:45:50 13:46:45 11° 308° (NW) 13:47:40 145.825 FM, Beacon 2401.500 USB
Gurwin Techsat 1B 18 Apr 13:57:55 14:01:08 17° 52° (NE) 14:04:22 435.225 FM
AO-7 18 Apr 14:08:25 14:13:17 17° 32° (NNE) 14:18:10 29.400 - 29.500 MHz
AO-27 18 Apr 14:09:35 14:14:32 47° 66° (ENE) 14:19:30 436.795 MHz FM
HO-68 18 Apr 14:18:53 14:22:14 14° 324° (NW) 14:25:35 435.675 MHz FM
ITAMSAT 1 18 Apr 14:20:28 14:25:31 56° 68° (ENE) 14:30:36 435.822 SSB
Oscar 19 18 Apr 14:27:43 14:32:52 79° 256° (WSW) 14:38:05 437.125 CW, 437.150 USB
Oscar 16 18 Apr 14:35:54 14:41:00 64° 258° (WSW) 14:46:10 437.025 USB, Beacon 2401.1428
AO-Echo 18 Apr 14:38:27 14:43:37 63° 70° (ENE) 14:48:40 ?
